Flag for Russia Weather past 2 weeks in Kaliningrad, Russia

Now
88 °F

Partly sunny.


Feels Like: 87 °F
Forecast: 65 / 91 °F
Wind: 6 mph from South

Location: Kaliningrad/Khrabrovo Airport

Current Time: Jul 28, 2014 at 3:47:32 PM

Latest Report: Jul 28, 2014 at 3:00 PM


Visibility: N/A

Pressure: 29.92 "Hg

Humidity: 35%

Dew point: 57 °F

Location of KaliningradLocation

Historic Weather in Kaliningrad — Graph

°F

Kaliningrad temperature yesterday

Maximum temperature yesterday: 91 °F (at 3:00 PM)
Minimum temperature yesterday: 61 °F (at 5:30 AM)
Average temperature yesterday: 77 °F

Past Weeks' High & Low Weather Summary

 TemperatureHumidityPressure
High91 °F (Jul 27, 3:00 PM)94% (Jul 14, 2:00 AM)30.21 "Hg (Jul 14, 2:00 AM)
Low50 °F (Jul 18, 5:30 AM)26% (Jul 27, 1:30 PM)29.74 "Hg (Jul 13, 2:00 PM)
Average69 °F65%30.05 "Hg
* Reported Jul 13 2:00 PM — Jul 28 2:30 PM, Kaliningrad, Weather by CustomWeather, © 2014

Note: Actual official high and low records may vary slightly from our data, if they occured in-between our weather recording intervals... More about our weather records

Advertising

Kaliningrad weather history for previous 24 hours

 ConditionsComfort  
Time TempWeatherWind HumidityBarometerVisibility
2:30 PM
Jul 28
88 °FPartly sunny.8 mph35%29.92 "HgN/A
2:00 PM88 °FPartly sunny.3 mph40%29.92 "HgN/A
1:30 PM86 °FPassing clouds.8 mph38%29.92 "HgN/A
1:00 PM84 °FPassing clouds.8 mph45%29.92 "HgN/A
12:30 PM84 °FPassing clouds.8 mph45%29.92 "HgN/A
12:00 PM82 °FPassing clouds.10 mph48%29.95 "HgN/A
11:30 AM81 °FPassing clouds.10 mph51%29.95 "HgN/A
11:00 AM81 °FPassing clouds.8 mph54%29.95 "HgN/A
10:30 AM79 °FPassing clouds.8 mph54%29.95 "HgN/A
10:00 AM77 °FPassing clouds.8 mph57%29.95 "HgN/A
9:30 AM75 °FPassing clouds.10 mph61%29.95 "HgN/A
9:00 AM73 °FPassing clouds.10 mph65%29.95 "HgN/A
8:30 AM72 °FSunny.8 mph69%29.95 "Hg10 mi
8:00 AM72 °FPassing clouds.6 mph69%29.98 "HgN/A
7:30 AM68 °FPassing clouds.3 mph73%29.98 "HgN/A
7:00 AM66 °FClear.1 mph78%29.98 "Hg10 mi
6:30 AM66 °FPassing clouds.3 mph78%29.98 "HgN/A
6:00 AM64 °FPassing clouds.6 mph78%29.98 "HgN/A
5:30 AM64 °FPassing clouds.6 mph78%29.98 "HgN/A
5:00 AM64 °FClear.3 mph78%29.98 "Hg10 mi
4:30 AM66 °FClear.3 mph73%29.98 "Hg10 mi
4:00 AM66 °FClear.6 mph78%29.98 "Hg10 mi
3:30 AM66 °FClear.6 mph73%29.98 "Hg10 mi
3:00 AM68 °FClear.6 mph69%29.98 "Hg10 mi
2:00 AM68 °FPassing clouds.6 mph69%29.98 "HgN/A
1:30 AM70 °FPassing clouds.3 mph64%29.98 "HgN/A
1:00 AM70 °FClear.6 mph64%29.98 "Hg10 mi
12:30 AM70 °FClear.6 mph64%29.98 "Hg10 mi
12:00 AM72 °FClear.6 mph61%29.98 "Hg10 mi
11:30 PM
Jul 27
72 °FSunny.6 mph65%29.98 "Hg10 mi
11:00 PM72 °FSunny.6 mph65%29.98 "Hg10 mi
10:30 PM73 °FSunny.8 mph61%29.98 "Hg10 mi
10:00 PM77 °FPassing clouds.8 mph54%29.98 "HgN/A
9:30 PM79 °FPassing clouds.6 mph48%29.98 "HgN/A
9:00 PM81 °FSunny.6 mph45%29.98 "Hg10 mi
8:30 PM81 °FSunny.6 mph45%29.98 "Hg10 mi
8:00 PM84 °FPassing clouds.6 mph37%29.95 "HgN/A
7:30 PM86 °FSunny.6 mph33%29.95 "Hg10 mi
7:00 PM84 °FSunny.1 mph35%29.95 "Hg10 mi
6:30 PM88 °FPassing clouds.3 mph29%29.95 "HgN/A
6:00 PM88 °FSunny.8 mph29%29.98 "Hg10 mi
5:30 PM88 °FPassing clouds.8 mph29%29.98 "HgN/A
5:00 PM90 °FPassing clouds.10 mph26%29.98 "HgN/A
4:30 PM88 °FPassing clouds.13 mph27%29.98 "HgN/A
4:00 PM90 °FPassing clouds.13 mph27%30.01 "HgN/A
3:30 PM90 °FPassing clouds.13 mph26%30.01 "HgN/A
3:00 PM91 °FPassing clouds.10 mph26%30.01 "HgN/A
Weather by CustomWeather, © 2014

See weather overviewHow to use our weather pages